Shelton, WA

6:07 PM PDT on March 27, 2017 (GMT -0700)
Sanderson

Weather History for KSHN - May, 2013

Change the Weather History Date:

Thursday, May 23, 2013

  Actual Average Record
Temperature  
Mean Temperature 42 °F -  
Max Temperature 48 °F 67 °F 88 °F (1969)
Min Temperature 37 °F 45 °F 34 °F (1950)
Degree Days  
Heating Degree Days 22    
Moisture  
Dew Point 44 °F    
Average Humidity 94    
Maximum Humidity 100    
Minimum Humidity 83    
Precipitation  
Precipitation 0.94 in - - ()
Sea Level Pressure  
Sea Level Pressure 29.96 in    
Wind  
Wind Speed 3 mph (ENE)    
Max Wind Speed 9 mph    
Max Gust Speed -    
Visibility 7 miles    
Events Rain    
Averages and records for this station are not official NWS values.
T = Trace of Precipitation, MM = Missing Value Source: NWS Daily Summary

Daily Weather History Graph

Daily Weather History Graph

Search for Another Location

Airport or City:

Trip Planner

Search our weather history database for the weather conditions in past years. The results will help you decide how hot, cold, wet, or windy it might be!

Date:

Astronomy

May. 23, 2013 Rise Set
Actual Time 5:27 AM PDT 8:52 PM PDT
Civil Twilight 4:49 AM PDT 9:29 PM PDT
Nautical Twilight 4:00 AM PDT 10:19 PM PDT
Astronomical Twilight 2:56 AM PDT 11:24 PM PDT
Moon 7:26 PM PDT (5/23) 4:23 AM PDT (5/23)
Length of Visible Light 16h 40m
Length of Day
15h 24m
Waxing Gibbous, 97% of the Moon is Illuminated
May 23
Waxing Gibbous
May 24
Full
May 31
Last Quarter
Jun 8
New
Jun 16
First Quarter

Hourly Weather History & Observations

Time (PDT) Temp. Windchill Dew Point Humidity Pressure Visibility Wind Dir Wind Speed Gust Speed Precip Events Conditions
12:50 AM 44.6 °F - 44.6 °F 100% 29.92 in 10.0 mi Calm Calm - N/A   Overcast
12:53 AM 45.0 °F - 44.1 °F 97% 29.93 in 10.0 mi Calm Calm - N/A   Overcast
1:03 AM 44.6 °F - 44.6 °F 100% 29.92 in 10.0 mi Calm Calm - N/A   Overcast
1:53 AM 45.0 °F - 43.0 °F 93% 29.94 in 10.0 mi Calm Calm - N/A   Overcast
2:53 AM 45.0 °F - 43.0 °F 93% 29.95 in 10.0 mi Calm Calm - N/A   Overcast
3:16 AM 44.6 °F - 41.0 °F 87% 29.94 in 10.0 mi Calm Calm - N/A   Scattered Clouds
3:53 AM 42.1 °F - 39.9 °F 92% 29.95 in 2.5 mi Calm Calm - N/A   Clear
4:02 AM 42.8 °F - 39.2 °F 87% 29.94 in 3.0 mi Calm Calm - N/A   Clear
4:33 AM 41.0 °F - 39.2 °F 93% 29.94 in 10.0 mi Calm Calm - N/A   Scattered Clouds
4:42 AM 42.8 °F 41.1 °F 41.0 °F 93% 29.94 in 10.0 mi NNE 3.5 mph - N/A   Mostly Cloudy
4:53 AM 42.1 °F - 41.0 °F 96% 29.96 in 10.0 mi Calm Calm - N/A   Overcast
5:01 AM 42.8 °F - 41.0 °F 93% 29.94 in 10.0 mi Calm Calm - N/A   Overcast
5:20 AM 39.2 °F - 39.2 °F 100% 29.94 in 1.5 mi Calm Calm - N/A   Mostly Cloudy
5:28 AM 39.2 °F - 39.2 °F 100% 29.94 in 0.8 mi Calm Calm - N/A   Scattered Clouds
5:32 AM 39.2 °F - 39.2 °F 100% 29.94 in 2.5 mi Calm Calm - N/A   Scattered Clouds
5:39 AM 39.2 °F 37.0 °F 39.2 °F 100% 29.94 in 10.0 mi NNE 3.5 mph - N/A   Partly Cloudy
5:53 AM 37.9 °F - 37.9 °F 100% 29.96 in 10.0 mi Calm Calm - N/A   Clear
6:53 AM 43.0 °F - 41.0 °F 93% 29.96 in 10.0 mi Calm Calm - N/A   Overcast
7:16 AM 44.6 °F - 42.8 °F 93% 29.96 in 10.0 mi Calm Calm - N/A   Overcast
7:30 AM 44.6 °F 43.1 °F 42.8 °F 93% 29.96 in 10.0 mi ENE 3.5 mph - N/A   Overcast
7:45 AM 44.6 °F - 42.8 °F 93% 29.96 in 10.0 mi Calm Calm - N/A   Overcast
7:53 AM 45.0 °F 43.5 °F 42.1 °F 90% 29.97 in 10.0 mi East 3.5 mph - N/A   Overcast
8:18 AM 46.4 °F 45.2 °F 42.8 °F 87% 29.96 in 10.0 mi East 3.5 mph - N/A   Overcast
8:53 AM 46.9 °F - 43.0 °F 86% 29.98 in 10.0 mi East 5.8 mph - N/A   Overcast
9:01 AM 46.4 °F 42.9 °F 42.8 °F 87% 29.97 in 10.0 mi East 6.9 mph - N/A   Overcast
9:53 AM 48.0 °F - 43.0 °F 83% 29.98 in 10.0 mi East 5.8 mph - N/A   Overcast
10:53 AM 48.0 °F - 45.0 °F 89% 29.98 in 7.0 mi ESE 5.8 mph - N/A   Overcast
10:56 AM 48.2 °F - 44.6 °F 87% 29.97 in 8.0 mi East 5.8 mph - N/A   Overcast
11:05 AM 48.2 °F - 44.6 °F 87% 29.97 in 8.0 mi East 5.8 mph - N/A   Overcast
11:09 AM 48.2 °F - 44.6 °F 87% 29.97 in 4.0 mi East 4.6 mph - N/A   Overcast
11:21 AM 48.2 °F - 44.6 °F 87% 29.97 in 5.0 mi East 5.8 mph - N/A   Overcast
11:29 AM 48.2 °F - 44.6 °F 87% 29.97 in 4.0 mi East 5.8 mph - N/A   Overcast
11:48 AM 46.4 °F 45.2 °F 44.6 °F 93% 29.97 in 2.5 mi East 3.5 mph - 0.01 in Rain Light Rain
11:53 AM 48.0 °F - 46.0 °F 93% 29.98 in 8.0 mi East 4.6 mph - 0.01 in   Overcast
12:04 PM 48.2 °F - 46.4 °F 93% 29.97 in 10.0 mi SSE 5.8 mph - N/A   Overcast
12:53 PM 48.0 °F - 45.0 °F 89% 29.98 in 7.0 mi SE 9.2 mph - 0.02 in Rain Light Rain
1:46 PM 46.4 °F 41.9 °F 44.6 °F 93% 29.97 in 5.0 mi ESE 9.2 mph - 0.08 in Rain Rain
1:53 PM 46.9 °F - 45.0 °F 93% 29.99 in 5.0 mi SE 6.9 mph - 0.09 in Rain Light Rain
2:04 PM 46.4 °F 42.4 °F 44.6 °F 93% 29.98 in 6.0 mi SE 8.1 mph - 0.02 in Rain Light Rain
2:26 PM 46.4 °F 43.5 °F 46.4 °F 100% 29.98 in 5.0 mi ESE 5.8 mph - 0.06 in Rain Light Rain
2:44 PM 46.4 °F 42.9 °F 44.6 °F 93% 29.99 in 5.0 mi East 6.9 mph - 0.09 in Rain Light Rain
2:53 PM 46.9 °F - 45.0 °F 93% 30.00 in 5.0 mi ENE 5.8 mph - 0.10 in Rain Light Rain
3:08 PM 48.2 °F - 46.4 °F 93% 29.99 in 6.0 mi East 5.8 mph - 0.02 in Rain Light Rain
3:15 PM 48.2 °F - 46.4 °F 93% 29.99 in 5.0 mi ENE 3.5 mph - 0.03 in Rain Light Rain
3:45 PM 48.2 °F - 46.4 °F 93% 29.98 in 6.0 mi NE 4.6 mph - 0.06 in Rain Light Rain
3:53 PM 48.0 °F - 46.0 °F 93% 30.00 in 5.0 mi NE 4.6 mph - 0.07 in Rain Light Rain
4:11 PM 46.4 °F 44.3 °F 46.4 °F 100% 29.98 in 6.0 mi NE 4.6 mph - 0.03 in Rain Light Rain
4:53 PM 46.9 °F - 46.0 °F 97% 29.99 in 6.0 mi NNE 5.8 mph - 0.07 in Rain Light Rain
5:14 PM 46.4 °F 43.5 °F 46.4 °F 100% 29.97 in 5.0 mi NE 5.8 mph - 0.03 in Rain Light Rain
5:42 PM 46.4 °F 43.5 °F 46.4 °F 100% 29.97 in 5.0 mi NNE 5.8 mph - 0.07 in Rain Light Rain
5:53 PM 46.9 °F - 46.0 °F 97% 29.98 in 5.0 mi NNE 8.1 mph - 0.08 in Rain Light Rain
6:12 PM 46.4 °F 42.4 °F 46.4 °F 100% 29.97 in 5.0 mi North 8.1 mph - 0.03 in Rain Light Rain
6:21 PM 46.4 °F 42.9 °F 44.6 °F 93% 29.96 in 4.0 mi NNW 6.9 mph - 0.05 in Rain Light Rain
6:29 PM 46.4 °F 42.9 °F 44.6 °F 93% 29.96 in 4.0 mi NNW 6.9 mph - 0.06 in Rain Light Rain
6:53 PM 46.0 °F 41.9 °F 44.1 °F 93% 29.97 in 7.0 mi North 8.1 mph - 0.10 in Rain Light Rain
7:35 PM 46.4 °F 42.9 °F 44.6 °F 93% 29.95 in 2.0 mi NNW 6.9 mph - 0.10 in Rain Heavy Rain
7:53 PM 46.0 °F 43.1 °F 44.1 °F 93% 29.96 in 2.0 mi Variable 5.8 mph - 0.19 in Rain Rain
8:02 PM 46.4 °F 45.2 °F 44.6 °F 93% 29.95 in 3.0 mi North 3.5 mph - 0.02 in Rain Rain
8:43 PM 46.4 °F - 46.4 °F 100% 29.95 in 7.0 mi Calm Calm - 0.10 in Rain Light Rain
8:53 PM 48.0 °F - 46.0 °F 93% 29.96 in 8.0 mi NE 5.8 mph - 0.11 in Rain Light Rain
9:26 PM 48.2 °F - 46.4 °F 93% 29.95 in 6.0 mi Variable 3.5 mph - 0.02 in Rain Light Rain
9:35 PM 46.4 °F 45.2 °F 46.4 °F 100% 29.96 in 4.0 mi SW 3.5 mph - 0.03 in Rain Light Rain
9:53 PM 46.9 °F - 46.0 °F 97% 29.97 in 9.0 mi Calm Calm - 0.06 in Rain Light Rain
10:35 PM 48.2 °F - 46.4 °F 93% 29.97 in 5.0 mi Calm Calm - 0.02 in Rain Light Rain
10:53 PM 48.0 °F - 46.0 °F 93% 29.98 in 10.0 mi NE 3.5 mph - 0.03 in Rain Light Rain
11:30 PM 48.2 °F - 46.4 °F 93% 29.97 in 10.0 mi East 5.8 mph - 0.01 in Rain Light Rain
11:46 PM 46.4 °F 45.2 °F 46.4 °F 100% 29.97 in 10.0 mi ENE 3.5 mph - 0.01 in Rain Light Rain
11:53 PM 46.9 °F - 46.0 °F 97% 29.98 in 10.0 mi ENE 3.5 mph - 0.01 in Rain Light Rain